| time (UTC) | temp C | wind direction | speed KPH | gust KPH | rain 1hr cm | rain 24hr cm | rain mn cm | humidity % | barometer mb |
| 20260505034506 | 14 | 148 | 1.6 | 1.6 | 0.00 | 0.00 | 0.00 | 73 | 1011.5 |
| 20260505033934 | 15 | 148 | 1.6 | 1.6 | 0.00 | 0.00 | 0.00 | 72 | 1011.5 |
| 20260505033433 | 15 | 148 | 1.6 | 1.6 | 0.00 | 0.00 | 0.00 | 72 | 1011.5 |
| 20260505032931 | 15 | 148 | 1.6 | 1.6 | 0.00 | 0.00 | 0.00 | 72 | 1011.5 |
| 20260505032430 | 15 | 148 | 0.0 | 1.6 | 0.00 | 0.00 | 0.00 | 71 | 1011.5 |
| 20260505031928 | 15 | 149 | 1.6 | 1.6 | 0.00 | 0.00 | 0.00 | 71 | 1011.5 |
| 20260505031427 | 15 | 149 | 1.6 | 1.6 | 0.00 | 0.00 | 0.00 | 70 | 1011.5 |
| 20260505030926 | 16 | 149 | 1.6 | 1.6 | 0.00 | 0.00 | 0.00 | 70 | 1011.5 |
| 20260505030425 | 16 | 150 | 0.0 | 3.2 | 0.00 | 0.00 | 0.00 | 68 | 1011.5 |
| 20260505025853 | 16 | 149 | 0.0 | 3.2 | 0.00 | 0.00 | 0.00 | 67 | 1011.5 |
| 20260505025352 | 16 | 149 | 1.6 | 3.2 | 0.00 | 0.00 | 0.00 | 65 | 1011.5 |
| 20260505024850 | 17 | 149 | 1.6 | 3.2 | 0.00 | 0.00 | 0.00 | 65 | 1011.5 |
| 20260505024349 | 17 | 138 | 1.6 | 3.2 | 0.00 | 0.00 | 0.00 | 64 | 1011.2 |
| 20260505023849 | 17 | 125 | 1.6 | 3.2 | 0.00 | 0.00 | 0.00 | 64 | 1011.5 |
| 20260505023347 | 17 | 139 | 1.6 | 4.8 | 0.00 | 0.00 | 0.00 | 65 | 1011.5 |
| 20260505022846 | 17 | 131 | 1.6 | 4.8 | 0.00 | 0.00 | 0.00 | 63 | 1011.2 |
| 20260505022344 | 17 | 140 | 1.6 | 4.8 | 0.00 | 0.00 | 0.00 | 64 | 1011.2 |
| 20260505021843 | 17 | 172 | 3.2 | 4.8 | 0.00 | 0.00 | 0.00 | 64 | 1011.2 |
| 20260505021309 | 17 | 136 | 1.6 | 4.8 | 0.00 | 0.00 | 0.00 | 65 | 1011.2 |
| 20260505020807 | 17 | 152 | 1.6 | 8.0 | 0.00 | 0.00 | 0.00 | 65 | 1011.2 |
| 20260505020306 | 17 | 134 | 1.6 | 8.0 | 0.00 | 0.00 | 0.00 | 64 | 1011.2 |
| 20260505015805 | 17 | 135 | 1.6 | 9.7 | 0.00 | 0.00 | 0.00 | 63 | 1011.2 |
| 20260505015159 | 17 | 192 | 3.2 | 9.7 | 0.00 | 0.00 | 0.00 | 63 | 1011.2 |
| 20260505014657 | 17 | 161 | 1.6 | 4.8 | 0.00 | 0.00 | 0.00 | 65 | 1011.2 |
| 20260505014156 | 18 | 137 | 1.6 | 3.2 | 0.00 | 0.00 | 0.00 | 64 | 1011.2 |
| 20260505013654 | 18 | 131 | 1.6 | 4.8 | 0.00 | 0.00 | 0.00 | 64 | 1011.2 |
| 20260505013153 | 18 | 144 | 1.6 | 4.8 | 0.00 | 0.00 | 0.00 | 63 | 1011.2 |
| 20260505012653 | 18 | 190 | 1.6 | 4.8 | 0.00 | 0.00 | 0.00 | 62 | 1011.2 |
| 20260505012121 | 18 | 179 | 1.6 | 4.8 | 0.00 | 0.00 | 0.00 | 62 | 1011.2 |
| 20260505011619 | 18 | 226 | 3.2 | 4.8 | 0.00 | 0.00 | 0.00 | 61 | 1010.8 |
| 20260505011117 | 19 | 165 | 1.6 | 4.8 | 0.00 | 0.00 | 0.00 | 62 | 1010.8 |
| 20260505010616 | 20 | 160 | 1.6 | 4.8 | 0.00 | 0.00 | 0.00 | 61 | 1010.8 |
| 20260505010114 | 20 | 146 | 1.6 | 3.2 | 0.00 | 0.00 | 0.00 | 60 | 1010.8 |
| 20260505005613 | 20 | 146 | 1.6 | 3.2 | 0.00 | 0.00 | 0.00 | 59 | 1010.8 |
| 20260505005112 | 20 | 215 | 1.6 | 3.2 | 0.00 | 0.00 | 0.00 | 58 | 1010.8 |
| 20260505004611 | 20 | 177 | 1.6 | 9.7 | 0.00 | 0.00 | 0.00 | 58 | 1010.8 |
| 20260505004110 | 21 | 176 | 1.6 | 9.7 | 0.00 | 0.00 | 0.00 | 58 | 1010.8 |
| 20260505003607 | 21 | 188 | 1.6 | 9.7 | 0.00 | 0.00 | 0.00 | 57 | 1010.5 |
| 20260505003105 | 21 | 180 | 1.6 | 9.7 | 0.00 | 0.00 | 0.00 | 56 | 1010.5 |
| 20260505002604 | 21 | 194 | 1.6 | 8.0 | 0.00 | 0.00 | 0.00 | 56 | 1010.5 |
| 20260505002103 | 21 | 227 | 4.8 | 12.9 | 0.00 | 0.00 | 0.00 | 55 | 1010.5 |
| 20260505001530 | 22 | 238 | 1.6 | 14.5 | 0.00 | 0.00 | 0.00 | 55 | 1010.5 |
| 20260505001029 | 22 | 163 | 1.6 | 14.5 | 0.00 | 0.00 | 0.00 | 53 | 1010.5 |
| 20260505000528 | 22 | 224 | 3.2 | 12.9 | 0.00 | 0.00 | 0.00 | 53 | 1010.5 |
| 20260504235955 | 22 | 310 | 1.6 | 8.0 | 0.00 | 0.00 | 0.00 | 53 | 1010.5 |
| 20260504235454 | 22 | 203 | 3.2 | 11.3 | 0.00 | 0.00 | 0.00 | 52 | 1010.5 |
| 20260504234953 | 22 | 200 | 1.6 | 11.3 | 0.00 | 0.00 | 0.00 | 52 | 1010.5 |
| 20260504234452 | 23 | 183 | 1.6 | 11.3 | 0.00 | 0.00 | 0.00 | 51 | 1010.5 |
| 20260504233951 | 23 | 197 | 3.2 | 11.3 | 0.00 | 0.00 | 0.00 | 50 | 1010.5 |
| 20260504233450 | 23 | 174 | 1.6 | 12.9 | 0.00 | 0.00 | 0.00 | 50 | 1010.5 |
| 20260504232949 | 23 | 211 | 3.2 | 14.5 | 0.00 | 0.00 | 0.00 | 50 | 1010.5 |
| 20260504232417 | 23 | 214 | 4.8 | 14.5 | 0.00 | 0.00 | 0.00 | 49 | 1010.5 |
| 20260504231916 | 23 | 188 | 3.2 | 11.3 | 0.00 | 0.00 | 0.00 | 50 | 1010.5 |
| 20260504231414 | 23 | 226 | 4.8 | 11.3 | 0.00 | 0.00 | 0.00 | 49 | 1010.5 |
| 20260504230913 | 23 | 222 | 3.2 | 11.3 | 0.00 | 0.00 | 0.00 | 50 | 1010.5 |
| 20260504230412 | 23 | 235 | 6.4 | 11.3 | 0.00 | 0.00 | 0.00 | 49 | 1010.2 |
| 20260504225840 | 23 | 230 | 3.2 | 14.5 | 0.00 | 0.00 | 0.00 | 50 | 1010.5 |
| 20260504225206 | 23 | 207 | 3.2 | 14.5 | 0.00 | 0.00 | 0.00 | 49 | 1010.5 |
| 20260504224705 | 23 | 228 | 4.8 | 16.1 | 0.00 | 0.00 | 0.00 | 49 | 1010.5 |
| 20260504224203 | 23 | 233 | 6.4 | 16.1 | 0.00 | 0.00 | 0.00 | 48 | 1010.5 |
| 20260504223702 | 23 | 226 | 3.2 | 12.9 | 0.00 | 0.00 | 0.00 | 48 | 1010.5 |
| 20260504223201 | 23 | 212 | 3.2 | 16.1 | 0.00 | 0.00 | 0.00 | 47 | 1010.5 |
| 20260504222700 | 24 | 236 | 4.8 | 16.1 | 0.00 | 0.00 | 0.00 | 47 | 1010.5 |
| 20260504222159 | 24 | 240 | 3.2 | 17.7 | 0.00 | 0.00 | 0.00 | 46 | 1010.5 |
| 20260504221657 | 24 | 252 | 3.2 | 17.7 | 0.00 | 0.00 | 0.00 | 46 | 1010.5 |
| 20260504221156 | 24 | 229 | 4.8 | 11.3 | 0.00 | 0.00 | 0.00 | 44 | 1010.5 |
| 20260504220655 | 24 | 230 | 6.4 | 12.9 | 0.00 | 0.00 | 0.00 | 43 | 1010.5 |
| 20260504220154 | 24 | 230 | 6.4 | 12.9 | 0.00 | 0.00 | 0.00 | 43 | 1010.5 |
| 20260504215551 | 25 | 208 | 4.8 | 14.5 | 0.00 | 0.00 | 0.00 | 43 | 1010.5 |
| 20260504215049 | 25 | 206 | 4.8 | 16.1 | 0.00 | 0.00 | 0.00 | 43 | 1010.5 |
| 20260504214547 | 25 | 231 | 3.2 | 16.1 | 0.00 | 0.00 | 0.00 | 44 | 1010.5 |
| 20260504214046 | 25 | 239 | 4.8 | 17.7 | 0.00 | 0.00 | 0.00 | 43 | 1010.5 |
| 20260504213544 | 25 | 230 | 6.4 | 27.4 | 0.00 | 0.00 | 0.00 | 43 | 1010.5 |
| 20260504213044 | 25 | 221 | 3.2 | 27.4 | 0.00 | 0.00 | 0.00 | 45 | 1010.5 |
| 20260504212542 | 25 | 235 | 8.0 | 27.4 | 0.00 | 0.00 | 0.00 | 42 | 1010.5 |
| 20260504212040 | 25 | 228 | 6.4 | 27.4 | 0.00 | 0.00 | 0.00 | 45 | 1010.5 |
| 20260504211540 | 25 | 163 | 3.2 | 16.1 | 0.00 | 0.00 | 0.00 | 43 | 1010.5 |
| 20260504211007 | 25 | 241 | 4.8 | 16.1 | 0.00 | 0.00 | 0.00 | 43 | 1010.5 |
| 20260504210506 | 25 | 228 | 6.4 | 17.7 | 0.00 | 0.00 | 0.00 | 45 | 1010.8 |
| 20260504205933 | 25 | 228 | 8.0 | 17.7 | 0.00 | 0.00 | 0.00 | 45 | 1010.8 |
| 20260504205258 | 25 | 245 | 3.2 | 8.0 | 0.00 | 0.00 | 0.00 | 45 | 1010.8 |
| 20260504204756 | 25 | 104 | 3.2 | 14.5 | 0.00 | 0.00 | 0.00 | 46 | 1010.8 |
| 20260504204255 | 25 | 114 | 3.2 | 16.1 | 0.00 | 0.00 | 0.00 | 46 | 1010.8 |
| 20260504203754 | 25 | 92 | 3.2 | 16.1 | 0.00 | 0.00 | 0.00 | 46 | 1010.8 |
| 20260504203253 | 25 | 244 | 6.4 | 11.3 | 0.00 | 0.00 | 0.00 | 44 | 1010.8 |
| 20260504202751 | 25 | 123 | 3.2 | 11.3 | 0.00 | 0.00 | 0.00 | 49 | 1011.2 |
| 20260504202250 | 25 | 248 | 4.8 | 12.9 | 0.00 | 0.00 | 0.00 | 46 | 1011.2 |
| 20260504201749 | 25 | 247 | 8.0 | 12.9 | 0.00 | 0.00 | 0.00 | 46 | 1011.2 |
| 20260504201246 | 25 | 196 | 3.2 | 11.3 | 0.00 | 0.00 | 0.00 | 48 | 1011.2 |
| 20260504200746 | 25 | 105 | 4.8 | 11.3 | 0.00 | 0.00 | 0.00 | 48 | 1011.2 |
| 20260504200244 | 25 | 115 | 3.2 | 12.9 | 0.00 | 0.00 | 0.00 | 48 | 1011.5 |
| 20260504195743 | 25 | 200 | 1.6 | 12.9 | 0.00 | 0.00 | 0.00 | 50 | 1011.5 |
| 20260504195242 | 25 | 226 | 3.2 | 11.3 | 0.00 | 0.00 | 0.00 | 49 | 1011.5 |
| 20260504194740 | 25 | 139 | 3.2 | 12.9 | 0.00 | 0.00 | 0.00 | 48 | 1011.9 |
| 20260504194239 | 25 | 233 | 8.0 | 12.9 | 0.00 | 0.00 | 0.00 | 46 | 1011.9 |
| 20260504193738 | 25 | 150 | 3.2 | 14.5 | 0.00 | 0.00 | 0.00 | 49 | 1011.9 |
| 20260504193236 | 25 | 115 | 4.8 | 14.5 | 0.00 | 0.00 | 0.00 | 49 | 1011.9 |
| 20260504192735 | 25 | 183 | 3.2 | 9.7 | 0.00 | 0.00 | 0.00 | 50 | 1011.9 |
| 20260504192234 | 25 | 257 | 3.2 | 11.3 | 0.00 | 0.00 | 0.00 | 49 | 1012.2 |
| 20260504191733 | 25 | 232 | 4.8 | 11.3 | 0.00 | 0.00 | 0.00 | 49 | 1012.2 |
| 20260504191231 | 24 | 221 | 3.2 | 11.3 | 0.00 | 0.00 | 0.00 | 49 | 1012.2 |
| 20260504190656 | 24 | 240 | 4.8 | 11.3 | 0.00 | 0.00 | 0.00 | 49 | 1012.2 |
| 20260504190154 | 24 | 224 | 3.2 | 12.9 | 0.00 | 0.00 | 0.00 | 48 | 1012.5 |
| 20260504185653 | 24 | 219 | 4.8 | 12.9 | 0.00 | 0.00 | 0.00 | 49 | 1012.5 |
| 20260504185152 | 24 | 220 | 6.4 | 12.9 | 0.00 | 0.00 | 0.00 | 50 | 1012.5 |
| 20260504184649 | 24 | 270 | 3.2 | 14.5 | 0.00 | 0.00 | 0.00 | 49 | 1012.5 |
| 20260504184149 | 25 | 88 | 6.4 | 14.5 | 0.00 | 0.00 | 0.00 | 47 | 1012.5 |
| 20260504183648 | 25 | 336 | 3.2 | 14.5 | 0.00 | 0.00 | 0.00 | 48 | 1012.5 |
| 20260504183147 | 25 | 236 | 8.0 | 14.5 | 0.00 | 0.00 | 0.00 | 48 | 1012.5 |
| 20260504182646 | 25 | 242 | 9.7 | 14.5 | 0.00 | 0.00 | 0.00 | 47 | 1012.5 |
| 20260504182144 | 25 | 230 | 4.8 | 11.3 | 0.00 | 0.00 | 0.00 | 49 | 1012.9 |
| 20260504181610 | 25 | 90 | 6.4 | 12.9 | 0.00 | 0.00 | 0.00 | 47 | 1012.9 |
| 20260504181109 | 24 | 221 | 4.8 | 12.9 | 0.00 | 0.00 | 0.00 | 49 | 1012.9 |
| 20260504180608 | 24 | 83 | 4.8 | 12.9 | 0.00 | 0.00 | 0.00 | 47 | 1012.9 |
| 20260504180107 | 24 | 82 | 3.2 | 12.9 | 0.00 | 0.00 | 0.00 | 48 | 1013.2 |
| 20260504175606 | 24 | 290 | 1.6 | 12.9 | 0.00 | 0.00 | 0.00 | 50 | 1013.2 |
| 20260504175105 | 24 | 189 | 3.2 | 12.9 | 0.00 | 0.00 | 0.00 | 51 | 1013.2 |
| 20260504174603 | 24 | 229 | 3.2 | 8.0 | 0.00 | 0.00 | 0.00 | 50 | 1013.2 |
| 20260504174102 | 23 | 273 | 1.6 | 14.5 | 0.00 | 0.00 | 0.00 | 51 | 1013.2 |
| 20260504173559 | 23 | 178 | 3.2 | 14.5 | 0.00 | 0.00 | 0.00 | 49 | 1013.5 |
| 20260504173058 | 23 | 253 | 3.2 | 14.5 | 0.00 | 0.00 | 0.00 | 47 | 1013.5 |
| 20260504172557 | 23 | 254 | 6.4 | 14.5 | 0.00 | 0.00 | 0.00 | 52 | 1013.5 |
| 20260504172056 | 23 | 165 | 3.2 | 8.0 | 0.00 | 0.00 | 0.00 | 50 | 1013.9 |
| 20260504171554 | 23 | 213 | 1.6 | 8.0 | 0.00 | 0.00 | 0.00 | 50 | 1013.9 |
| 20260504170951 | 22 | 287 | 3.2 | 11.3 | 0.00 | 0.00 | 0.00 | 51 | 1013.9 |
| 20260504170450 | 22 | 79 | 3.2 | 11.3 | 0.00 | 0.00 | 0.00 | 51 | 1013.9 |
| 20260504160405 | 20 | 185 | 1.6 | 8.0 | 0.00 | 0.00 | 0.00 | 55 | 1014.9 |
| 20260504150716 | 18 | 200 | 3.2 | 8.0 | 0.00 | 0.00 | 0.00 | 59 | 1015.9 |
| 20260504150214 | 18 | 237 | 1.6 | 8.0 | 0.00 | 0.00 | 0.00 | 62 | 1015.9 |
| 20260504141026 | 15 | 181 | 0.0 | 4.8 | 0.00 | 0.00 | 0.00 | 72 | 1016.6 |
| 20260504140453 | 15 | 276 | 1.6 | 4.8 | 0.00 | 0.00 | 0.00 | 73 | 1016.6 |
| 20260504130338 | 11 | 251 | 1.6 | 3.2 | 0.00 | 0.00 | 0.00 | 83 | 1016.6 |
| 20260504120250 | 6 | 117 | 0.0 | 0.0 | 0.00 | 0.00 | 0.00 | 95 | 1016.3 |
| 20260504110235 | 5 | 117 | 0.0 | 0.0 | 0.00 | 0.00 | 0.00 | 95 | 1015.9 |
| 20260504100147 | 5 | 117 | 0.0 | 0.0 | 0.00 | 0.00 | 0.00 | 94 | 1015.9 |
| 20260504081914 | 5 | 115 | 0.0 | 1.6 | 0.00 | 0.00 | 0.00 | 93 | 1015.9 |
| 20260504081413 | 5 | 115 | 0.0 | 1.6 | 0.00 | 0.00 | 0.00 | 93 | 1015.9 |
| 20260504080910 | 5 | 115 | 0.0 | 1.6 | 0.00 | 0.00 | 0.00 | 93 | 1015.9 |
| 20260504080409 | 5 | 114 | 0.0 | 0.0 | 0.00 | 0.00 | 0.00 | 92 | 1015.9 |
| 20260504070354 | 6 | 115 | 0.0 | 0.0 | 0.00 | 0.00 | 0.00 | 92 | 1016.3 |
| 20260504060132 | 7 | 114 | 0.0 | 1.6 | 0.00 | 0.00 | 0.00 | 90 | 1016.3 |
| 20260504050517 | 7 | 194 | 0.0 | 1.6 | 0.00 | 0.00 | 0.00 | 90 | 1016.3 |
| 20260504045944 | 7 | 194 | 0.0 | 0.0 | 0.00 | 0.00 | 0.00 | 90 | 1016.3 |
| 20260504045442 | 7 | 194 | 0.0 | 0.0 | 0.00 | 0.00 | 0.00 | 89 | 1016.3 |
| 20260504044941 | 7 | 194 | 0.0 | 0.0 | 0.00 | 0.00 | 0.00 | 89 | 1016.3 |
| 20260504044440 | 7 | 194 | 0.0 | 0.0 | 0.00 | 0.00 | 0.00 | 89 | 1016.3 |
| 20260504043938 | 7 | 194 | 0.0 | 0.0 | 0.00 | 0.00 | 0.00 | 89 | 1016.3 |
| 20260504043436 | 7 | 194 | 0.0 | 0.0 | 0.00 | 0.00 | 0.00 | 88 | 1016.3 |
| 20260504042932 | 7 | 194 | 0.0 | 0.0 | 0.00 | 0.00 | 0.00 | 88 | 1016.3 |
| 20260504042432 | 7 | 194 | 0.0 | 0.0 | 0.00 | 0.00 | 0.00 | 87 | 1016.3 |
| 20260504041931 | 7 | 194 | 0.0 | 0.0 | 0.00 | 0.00 | 0.00 | 86 | 1016.3 |
| 20260504041325 | 7 | 194 | 0.0 | 0.0 | 0.00 | 0.00 | 0.00 | 86 | 1016.3 |
| 20260504040824 | 7 | 194 | 0.0 | 0.0 | 0.00 | 0.00 | 0.00 | 86 | 1016.3 |
| 20260504040322 | 7 | 194 | 0.0 | 0.0 | 0.00 | 0.00 | 0.00 | 85 | 1016.3 |
| 20260504035821 | 7 | 194 | 0.0 | 0.0 | 0.00 | 0.00 | 0.00 | 86 | 1016.3 |
| 20260504035317 | 7 | 195 | 0.0 | 0.0 | 0.00 | 0.00 | 0.00 | 86 | 1016.3 |